| time (UTC) | temp C | wind direction | speed KPH | gust KPH | rain 1hr cm | rain 24hr cm | rain mn cm | humidity % | barometer mb |
| 20260505210159 | 27 | 293 | 9.7 | 17.7 | 0.00 | 0.00 | 0.00 | 36 | 1007.9 |
| 20260505205657 | 27 | 200 | 20.9 | 30.6 | 0.00 | 0.00 | 0.00 | 35 | 1008.0 |
| 20260505205155 | 27 | 229 | 4.8 | 8.0 | 0.00 | 0.00 | 0.00 | 36 | 1008.1 |
| 20260505204651 | 27 | 306 | 25.7 | 40.2 | 0.00 | 0.00 | 0.00 | 34 | 1007.9 |
| 20260505204149 | 27 | 252 | 20.9 | 27.4 | 0.00 | 0.00 | 0.00 | 34 | 1007.5 |
| 20260505203646 | 27 | 186 | 22.5 | 32.2 | 0.00 | 0.00 | 0.00 | 35 | 1007.7 |
| 20260505203142 | 27 | 205 | 8.0 | 12.9 | 0.00 | 0.00 | 0.00 | 35 | 1008.0 |
| 20260505202638 | 27 | 264 | 27.4 | 45.1 | 0.00 | 0.00 | 0.00 | 35 | 1007.9 |
| 20260505202134 | 27 | 261 | 20.9 | 22.5 | 0.00 | 0.00 | 0.00 | 36 | 1008.1 |
| 20260505201631 | 27 | 196 | 12.9 | 19.3 | 0.00 | 0.00 | 0.00 | 36 | 1008.1 |
| 20260505201129 | 27 | 281 | 16.1 | 27.4 | 0.00 | 0.00 | 0.00 | 36 | 1008.1 |
| 20260505200627 | 27 | 241 | 16.1 | 22.5 | 0.00 | 0.00 | 0.00 | 35 | 1008.1 |
| 20260505200124 | 27 | 248 | 14.5 | 17.7 | 0.00 | 0.00 | 0.00 | 36 | 1008.1 |
| 20260505195620 | 27 | 283 | 19.3 | 32.2 | 0.00 | 0.00 | 0.00 | 36 | 1008.5 |
| 20260505195117 | 27 | 305 | 16.1 | 24.1 | 0.00 | 0.00 | 0.00 | 37 | 1008.3 |
| 20260505194614 | 27 | 235 | 11.3 | 19.3 | 0.00 | 0.00 | 0.00 | 38 | 1008.5 |
| 20260505194110 | 27 | 241 | 8.0 | 12.9 | 0.00 | 0.00 | 0.00 | 38 | 1008.5 |
| 20260505193607 | 27 | 220 | 25.7 | 35.4 | 0.00 | 0.00 | 0.00 | 37 | 1008.3 |
| 20260505193104 | 27 | 283 | 17.7 | 19.3 | 0.00 | 0.00 | 0.00 | 37 | 1008.6 |
| 20260505192603 | 27 | 182 | 12.9 | 14.5 | 0.00 | 0.00 | 0.00 | 37 | 1008.5 |
| 20260505192100 | 27 | 179 | 16.1 | 24.1 | 0.00 | 0.00 | 0.00 | 38 | 1008.6 |
| 20260505191558 | 27 | 286 | 12.9 | 19.3 | 0.00 | 0.00 | 0.00 | 38 | 1008.6 |
| 20260505191055 | 27 | 316 | 17.7 | 22.5 | 0.00 | 0.00 | 0.00 | 38 | 1008.5 |
| 20260505190550 | 27 | 274 | 9.7 | 9.7 | 0.00 | 0.00 | 0.00 | 38 | 1008.6 |
| 20260505190046 | 26 | 280 | 20.9 | 27.4 | 0.00 | 0.00 | 0.00 | 39 | 1008.7 |
| 20260505185543 | 26 | 230 | 22.5 | 40.2 | 0.00 | 0.00 | 0.00 | 38 | 1009.0 |
| 20260505185040 | 27 | 299 | 16.1 | 24.1 | 0.00 | 0.00 | 0.00 | 38 | 1009.0 |
| 20260505184536 | 26 | 291 | 20.9 | 30.6 | 0.00 | 0.00 | 0.00 | 38 | 1009.0 |
| 20260505184033 | 27 | 303 | 9.7 | 14.5 | 0.00 | 0.00 | 0.00 | 39 | 1009.3 |
| 20260505183530 | 27 | 213 | 19.3 | 27.4 | 0.00 | 0.00 | 0.00 | 38 | 1009.2 |
| 20260505183028 | 26 | 152 | 14.5 | 19.3 | 0.00 | 0.00 | 0.00 | 37 | 1009.0 |
| 20260505182524 | 26 | 279 | 16.1 | 19.3 | 0.00 | 0.00 | 0.00 | 39 | 1009.2 |
| 20260505182020 | 26 | 259 | 19.3 | 30.6 | 0.00 | 0.00 | 0.00 | 39 | 1009.2 |
| 20260505181517 | 26 | 238 | 12.9 | 17.7 | 0.00 | 0.00 | 0.00 | 41 | 1009.1 |
| 20260505181015 | 27 | 263 | 16.1 | 19.3 | 0.00 | 0.00 | 0.00 | 41 | 1009.3 |
| 20260505180510 | 26 | 305 | 16.1 | 19.3 | 0.00 | 0.00 | 0.00 | 40 | 1009.5 |
| 20260505180009 | 26 | 240 | 9.7 | 12.9 | 0.00 | 0.00 | 0.00 | 41 | 1009.5 |
| 20260505175503 | 26 | 287 | 8.0 | 14.5 | 0.00 | 0.00 | 0.00 | 42 | 1009.6 |
| 20260505175000 | 26 | 297 | 19.3 | 22.5 | 0.00 | 0.00 | 0.00 | 39 | 1009.6 |
| 20260505174457 | 26 | 246 | 8.0 | 14.5 | 0.00 | 0.00 | 0.00 | 43 | 1009.4 |
| 20260505173953 | 26 | 238 | 16.1 | 22.5 | 0.00 | 0.00 | 0.00 | 40 | 1009.7 |
| 20260505173449 | 26 | 40 | 9.7 | 12.9 | 0.00 | 0.00 | 0.00 | 41 | 1009.4 |
| 20260505172946 | 26 | 221 | 14.5 | 22.5 | 0.00 | 0.00 | 0.00 | 40 | 1009.8 |
| 20260505172445 | 26 | 278 | 14.5 | 19.3 | 0.00 | 0.00 | 0.00 | 41 | 1009.7 |
| 20260505171944 | 26 | 238 | 22.5 | 30.6 | 0.00 | 0.00 | 0.00 | 40 | 1010.0 |
| 20260505171441 | 26 | 166 | 8.0 | 9.7 | 0.00 | 0.00 | 0.00 | 43 | 1010.0 |
| 20260505170938 | 26 | 226 | 4.8 | 14.5 | 0.00 | 0.00 | 0.00 | 43 | 1010.0 |
| 20260505170435 | 26 | 331 | 9.7 | 17.7 | 0.00 | 0.00 | 0.00 | 45 | 1010.0 |
| 20260505165930 | 25 | 330 | 14.5 | 19.3 | 0.00 | 0.00 | 0.00 | 43 | 1010.1 |
| 20260505165427 | 26 | 189 | 17.7 | 24.1 | 0.00 | 0.00 | 0.00 | 42 | 1010.0 |
| 20260505164922 | 26 | 243 | 12.9 | 19.3 | 0.00 | 0.00 | 0.00 | 43 | 1010.2 |
| 20260505164419 | 25 | 266 | 8.0 | 12.9 | 0.00 | 0.00 | 0.00 | 44 | 1010.3 |
| 20260505163917 | 26 | 301 | 9.7 | 14.5 | 0.00 | 0.00 | 0.00 | 46 | 1010.5 |
| 20260505163416 | 25 | 288 | 9.7 | 12.9 | 0.00 | 0.00 | 0.00 | 46 | 1010.4 |
| 20260505162914 | 25 | 292 | 11.3 | 14.5 | 0.00 | 0.00 | 0.00 | 46 | 1010.5 |
| 20260505162409 | 25 | 295 | 11.3 | 14.5 | 0.00 | 0.00 | 0.00 | 46 | 1010.5 |
| 20260505161906 | 25 | 224 | 8.0 | 9.7 | 0.00 | 0.00 | 0.00 | 48 | 1010.6 |
| 20260505161403 | 25 | 282 | 17.7 | 22.5 | 0.00 | 0.00 | 0.00 | 46 | 1010.6 |
| 20260505160900 | 25 | 322 | 16.1 | 27.4 | 0.00 | 0.00 | 0.00 | 47 | 1010.8 |
| 20260505160359 | 25 | 17 | 8.0 | 12.9 | 0.00 | 0.00 | 0.00 | 46 | 1010.6 |
| 20260505153338 | 25 | 300 | 22.5 | 30.6 | 0.00 | 0.00 | 0.00 | 48 | 1010.9 |
| 20260505152835 | 25 | 284 | 11.3 | 14.5 | 0.00 | 0.00 | 0.00 | 48 | 1010.6 |
| 20260505152332 | 24 | 316 | 16.1 | 19.3 | 0.00 | 0.00 | 0.00 | 49 | 1010.7 |
| 20260505151832 | 23 | 327 | 12.9 | 19.3 | 0.00 | 0.00 | 0.00 | 49 | 1010.6 |
| 20260505151328 | 24 | 248 | 12.9 | 17.7 | 0.00 | 0.00 | 0.00 | 49 | 1010.7 |
| 20260505150825 | 23 | 319 | 9.7 | 14.5 | 0.00 | 0.00 | 0.00 | 49 | 1010.7 |
| 20260505150322 | 23 | 335 | 14.5 | 19.3 | 0.00 | 0.00 | 0.00 | 49 | 1010.6 |
| 20260505140247 | 21 | 69 | 6.4 | 8.0 | 0.00 | 0.00 | 0.00 | 55 | 1011.1 |
| 20260505130211 | 20 | 240 | 12.9 | 14.5 | 0.00 | 0.00 | 0.00 | 61 | 1011.4 |
| 20260505124701 | 19 | 218 | 9.7 | 14.5 | 0.00 | 0.00 | 0.00 | 63 | 1011.7 |
| 20260505124157 | 19 | 247 | 1.6 | 3.2 | 0.00 | 0.00 | 0.00 | 64 | 1011.6 |
| 20260505123653 | 18 | 237 | 3.2 | 4.8 | 0.00 | 0.00 | 0.00 | 66 | 1011.7 |
| 20260505123150 | 18 | 247 | 3.2 | 4.8 | 0.00 | 0.00 | 0.00 | 67 | 1011.7 |
| 20260505122647 | 18 | 238 | 4.8 | 8.0 | 0.00 | 0.00 | 0.00 | 67 | 1011.6 |
| 20260505122144 | 17 | 232 | 14.5 | 17.7 | 0.00 | 0.00 | 0.00 | 67 | 1011.4 |
| 20260505121641 | 17 | 233 | 8.0 | 12.9 | 0.00 | 0.00 | 0.00 | 68 | 1011.4 |
| 20260505121137 | 17 | 304 | 9.7 | 12.9 | 0.00 | 0.00 | 0.00 | 68 | 1011.3 |
| 20260505120633 | 17 | 217 | 4.8 | 9.7 | 0.00 | 0.00 | 0.00 | 70 | 1011.3 |
| 20260505120129 | 17 | 249 | 4.8 | 4.8 | 0.00 | 0.00 | 0.00 | 71 | 1011.3 |
| 20260505115623 | 16 | 273 | 0.0 | 3.2 | 0.00 | 0.00 | 0.00 | 72 | 1011.3 |
| 20260505115121 | 16 | 336 | 8.0 | 9.7 | 0.00 | 0.00 | 0.00 | 73 | 1011.2 |
| 20260505114618 | 16 | 318 | 4.8 | 8.0 | 0.00 | 0.00 | 0.00 | 72 | 1011.2 |
| 20260505114114 | 16 | 309 | 8.0 | 9.7 | 0.00 | 0.00 | 0.00 | 72 | 1011.4 |
| 20260505113611 | 15 | 335 | 1.6 | 3.2 | 0.00 | 0.00 | 0.00 | 74 | 1011.3 |
| 20260505113108 | 15 | 344 | 3.2 | 3.2 | 0.00 | 0.00 | 0.00 | 75 | 1011.2 |
| 20260505112604 | 15 | 220 | 0.0 | 0.0 | 0.00 | 0.00 | 0.00 | 75 | 1011.0 |
| 20260505112102 | 15 | 53 | 3.2 | 4.8 | 0.00 | 0.00 | 0.00 | 76 | 1011.1 |
| 20260505111556 | 15 | 346 | 0.0 | 0.0 | 0.00 | 0.00 | 0.00 | 75 | 1011.0 |
| 20260505111052 | 15 | 271 | 1.6 | 3.2 | 0.00 | 0.00 | 0.00 | 74 | 1010.8 |
| 20260505110549 | 15 | 273 | 3.2 | 3.2 | 0.00 | 0.00 | 0.00 | 75 | 1010.7 |
| 20260505102021 | 14 | 214 | 1.6 | 3.2 | 0.00 | 0.00 | 0.00 | 75 | 1010.5 |
| 20260505101520 | 14 | 91 | 0.0 | 3.2 | 0.00 | 0.00 | 0.00 | 76 | 1010.4 |
| 20260505101016 | 13 | 18 | 0.0 | 3.2 | 0.00 | 0.00 | 0.00 | 77 | 1010.4 |
| 20260505100513 | 13 | 339 | 0.0 | 0.0 | 0.00 | 0.00 | 0.00 | 80 | 1010.2 |
| 20260505100010 | 13 | 357 | 3.2 | 3.2 | 0.00 | 0.00 | 0.00 | 77 | 1010.5 |
| 20260505095506 | 13 | 282 | 0.0 | 0.0 | 0.00 | 0.00 | 0.00 | 79 | 1010.4 |
| 20260505095002 | 14 | 13 | 3.2 | 3.2 | 0.00 | 0.00 | 0.00 | 77 | 1010.2 |
| 20260505094459 | 15 | 2 | 1.6 | 3.2 | 0.00 | 0.00 | 0.00 | 75 | 1010.1 |
| 20260505093955 | 15 | 244 | 0.0 | 0.0 | 0.00 | 0.00 | 0.00 | 73 | 1010.4 |
| 20260505093452 | 15 | 167 | 3.2 | 3.2 | 0.00 | 0.00 | 0.00 | 73 | 1010.2 |
| 20260505092949 | 15 | 178 | 3.2 | 3.2 | 0.00 | 0.00 | 0.00 | 72 | 1010.0 |
| 20260505092446 | 14 | 204 | 1.6 | 3.2 | 0.00 | 0.00 | 0.00 | 75 | 1010.3 |
| 20260505091944 | 14 | 194 | 0.0 | 0.0 | 0.00 | 0.00 | 0.00 | 75 | 1010.3 |
| 20260505091441 | 14 | 173 | 4.8 | 4.8 | 0.00 | 0.00 | 0.00 | 75 | 1010.2 |
| 20260505090939 | 15 | 200 | 1.6 | 3.2 | 0.00 | 0.00 | 0.00 | 74 | 1010.2 |
| 20260505090437 | 15 | 162 | 3.2 | 4.8 | 0.00 | 0.00 | 0.00 | 74 | 1010.0 |
| 20260505085934 | 15 | 204 | 0.0 | 0.0 | 0.00 | 0.00 | 0.00 | 74 | 1010.1 |
| 20260505085432 | 15 | 165 | 3.2 | 3.2 | 0.00 | 0.00 | 0.00 | 73 | 1010.0 |
| 20260505084930 | 15 | 194 | 3.2 | 4.8 | 0.00 | 0.00 | 0.00 | 71 | 1010.0 |
| 20260505084428 | 15 | 180 | 1.6 | 3.2 | 0.00 | 0.00 | 0.00 | 71 | 1010.1 |
| 20260505083926 | 15 | 149 | 3.2 | 3.2 | 0.00 | 0.00 | 0.00 | 71 | 1010.1 |
| 20260505083423 | 15 | 172 | 3.2 | 4.8 | 0.00 | 0.00 | 0.00 | 71 | 1010.1 |
| 20260505082919 | 15 | 184 | 3.2 | 3.2 | 0.00 | 0.00 | 0.00 | 70 | 1010.2 |
| 20260505082415 | 15 | 177 | 0.0 | 0.0 | 0.00 | 0.00 | 0.00 | 71 | 1009.9 |
| 20260505081912 | 15 | 181 | 1.6 | 3.2 | 0.00 | 0.00 | 0.00 | 71 | 1009.9 |
| 20260505081409 | 15 | 149 | 3.2 | 4.8 | 0.00 | 0.00 | 0.00 | 71 | 1010.0 |
| 20260505080905 | 15 | 174 | 3.2 | 3.2 | 0.00 | 0.00 | 0.00 | 70 | 1009.9 |
| 20260505080401 | 15 | 156 | 1.6 | 3.2 | 0.00 | 0.00 | 0.00 | 70 | 1010.0 |
| 20260505075857 | 15 | 165 | 4.8 | 4.8 | 0.00 | 0.00 | 0.00 | 70 | 1010.1 |
| 20260505075354 | 16 | 191 | 1.6 | 3.2 | 0.00 | 0.00 | 0.00 | 69 | 1010.0 |
| 20260505074851 | 16 | 271 | 1.6 | 4.8 | 0.00 | 0.00 | 0.00 | 69 | 1009.8 |
| 20260505074348 | 16 | 175 | 1.6 | 3.2 | 0.00 | 0.00 | 0.00 | 69 | 1009.8 |
| 20260505073846 | 15 | 173 | 3.2 | 4.8 | 0.00 | 0.00 | 0.00 | 69 | 1010.0 |
| 20260505073343 | 15 | 150 | 4.8 | 4.8 | 0.00 | 0.00 | 0.00 | 70 | 1009.8 |
| 20260505072840 | 15 | 141 | 3.2 | 4.8 | 0.00 | 0.00 | 0.00 | 70 | 1009.5 |
| 20260505072336 | 15 | 165 | 1.6 | 3.2 | 0.00 | 0.00 | 0.00 | 70 | 1009.6 |
| 20260505071832 | 15 | 186 | 4.8 | 4.8 | 0.00 | 0.00 | 0.00 | 71 | 1009.8 |
| 20260505071329 | 15 | 194 | 3.2 | 4.8 | 0.00 | 0.00 | 0.00 | 70 | 1009.5 |
| 20260505070827 | 15 | 199 | 1.6 | 3.2 | 0.00 | 0.00 | 0.00 | 70 | 1009.6 |
| 20260505070324 | 15 | 175 | 3.2 | 3.2 | 0.00 | 0.00 | 0.00 | 69 | 1009.8 |
| 20260505065819 | 16 | 192 | 3.2 | 4.8 | 0.00 | 0.00 | 0.00 | 66 | 1009.7 |
| 20260505065316 | 16 | 158 | 1.6 | 3.2 | 0.00 | 0.00 | 0.00 | 66 | 1009.8 |
| 20260505064813 | 16 | 175 | 1.6 | 4.8 | 0.00 | 0.00 | 0.00 | 66 | 1009.9 |
| 20260505064310 | 16 | 204 | 3.2 | 3.2 | 0.00 | 0.00 | 0.00 | 66 | 1009.9 |
| 20260505063808 | 16 | 178 | 3.2 | 4.8 | 0.00 | 0.00 | 0.00 | 66 | 1010.1 |
| 20260505063304 | 16 | 180 | 1.6 | 3.2 | 0.00 | 0.00 | 0.00 | 66 | 1010.1 |
| 20260505062800 | 16 | 144 | 3.2 | 4.8 | 0.00 | 0.00 | 0.00 | 65 | 1009.9 |
| 20260505062258 | 16 | 247 | 0.0 | 3.2 | 0.00 | 0.00 | 0.00 | 65 | 1010.0 |
| 20260505061754 | 16 | 211 | 1.6 | 3.2 | 0.00 | 0.00 | 0.00 | 65 | 1010.2 |
| 20260505061253 | 16 | 201 | 0.0 | 3.2 | 0.00 | 0.00 | 0.00 | 66 | 1010.3 |
| 20260505060750 | 15 | 159 | 3.2 | 4.8 | 0.00 | 0.00 | 0.00 | 66 | 1010.3 |
| 20260505060247 | 15 | 158 | 4.8 | 4.8 | 0.00 | 0.00 | 0.00 | 67 | 1010.2 |
| 20260505055742 | 15 | 193 | 3.2 | 3.2 | 0.00 | 0.00 | 0.00 | 67 | 1010.3 |
| 20260505055238 | 15 | 181 | 1.6 | 3.2 | 0.00 | 0.00 | 0.00 | 68 | 1010.2 |
| 20260505054736 | 15 | 184 | 1.6 | 3.2 | 0.00 | 0.00 | 0.00 | 67 | 1010.1 |
| 20260505054234 | 15 | 180 | 3.2 | 4.8 | 0.00 | 0.00 | 0.00 | 66 | 1010.1 |
| 20260505053732 | 15 | 171 | 4.8 | 4.8 | 0.00 | 0.00 | 0.00 | 66 | 1010.3 |
| 20260505053228 | 15 | 164 | 3.2 | 4.8 | 0.00 | 0.00 | 0.00 | 66 | 1010.2 |
| 20260505052725 | 15 | 177 | 3.2 | 3.2 | 0.00 | 0.00 | 0.00 | 66 | 1010.3 |
| 20260505052222 | 15 | 207 | 1.6 | 3.2 | 0.00 | 0.00 | 0.00 | 66 | 1010.2 |
| 20260505051719 | 15 | 175 | 1.6 | 3.2 | 0.00 | 0.00 | 0.00 | 66 | 1010.1 |
| 20260505051212 | 16 | 194 | 0.0 | 3.2 | 0.00 | 0.00 | 0.00 | 66 | 1010.1 |
| 20260505050709 | 16 | 229 | 1.6 | 3.2 | 0.00 | 0.00 | 0.00 | 66 | 1010.0 |
| 20260505050207 | 16 | 183 | 3.2 | 3.2 | 0.00 | 0.00 | 0.00 | 65 | 1010.0 |
| 20260505041637 | 16 | 193 | 3.2 | 3.2 | 0.00 | 0.00 | 0.00 | 64 | 1010.1 |
| 20260505041134 | 16 | 192 | 3.2 | 3.2 | 0.00 | 0.00 | 0.00 | 64 | 1010.1 |
| 20260505040631 | 16 | 215 | 3.2 | 4.8 | 0.00 | 0.00 | 0.00 | 63 | 1009.9 |
| 20260505040128 | 16 | 179 | 3.2 | 3.2 | 0.00 | 0.00 | 0.00 | 62 | 1009.9 |
| 20260505035624 | 16 | 176 | 3.2 | 4.8 | 0.00 | 0.00 | 0.00 | 61 | 1010.0 |
| 20260505035121 | 16 | 191 | 3.2 | 4.8 | 0.00 | 0.00 | 0.00 | 61 | 1010.1 |
| 20260505034618 | 16 | 242 | 3.2 | 4.8 | 0.00 | 0.00 | 0.00 | 61 | 1009.9 |
| 20260505034114 | 16 | 205 | 3.2 | 3.2 | 0.00 | 0.00 | 0.00 | 63 | 1010.0 |
| 20260505033611 | 15 | 160 | 4.8 | 4.8 | 0.00 | 0.00 | 0.00 | 63 | 1009.8 |
| 20260505033110 | 15 | 167 | 3.2 | 4.8 | 0.00 | 0.00 | 0.00 | 64 | 1009.9 |
| 20260505032607 | 15 | 161 | 3.2 | 4.8 | 0.00 | 0.00 | 0.00 | 63 | 1009.8 |
| 20260505032103 | 16 | 154 | 3.2 | 4.8 | 0.00 | 0.00 | 0.00 | 62 | 1009.6 |
| 20260505031601 | 16 | 202 | 1.6 | 3.2 | 0.00 | 0.00 | 0.00 | 62 | 1009.7 |
| 20260505031057 | 16 | 195 | 1.6 | 3.2 | 0.00 | 0.00 | 0.00 | 63 | 1009.8 |
| 20260505030554 | 16 | 182 | 3.2 | 4.8 | 0.00 | 0.00 | 0.00 | 62 | 1009.6 |
| 20260505030050 | 16 | 184 | 4.8 | 4.8 | 0.00 | 0.00 | 0.00 | 62 | 1009.7 |
| 20260505025546 | 16 | 199 | 3.2 | 4.8 | 0.00 | 0.00 | 0.00 | 62 | 1009.7 |
| 20260505025045 | 16 | 184 | 3.2 | 4.8 | 0.00 | 0.00 | 0.00 | 61 | 1009.4 |
| 20260505024541 | 16 | 170 | 9.7 | 14.5 | 0.00 | 0.00 | 0.00 | 60 | 1009.7 |
| 20260505024039 | 16 | 164 | 8.0 | 9.7 | 0.00 | 0.00 | 0.00 | 60 | 1009.8 |
| 20260505023536 | 16 | 216 | 8.0 | 9.7 | 0.00 | 0.00 | 0.00 | 60 | 1009.8 |
| 20260505023033 | 16 | 210 | 12.9 | 17.7 | 0.00 | 0.00 | 0.00 | 59 | 1009.9 |
| 20260505022531 | 16 | 205 | 3.2 | 4.8 | 0.00 | 0.00 | 0.00 | 60 | 1009.6 |
| 20260505022028 | 16 | 217 | 9.7 | 14.5 | 0.00 | 0.00 | 0.00 | 61 | 1009.8 |
| 20260505021524 | 16 | 171 | 4.8 | 4.8 | 0.00 | 0.00 | 0.00 | 61 | 1009.6 |
| 20260505021020 | 16 | 182 | 3.2 | 4.8 | 0.00 | 0.00 | 0.00 | 61 | 1009.8 |
| 20260505020515 | 16 | 156 | 4.8 | 4.8 | 0.00 | 0.00 | 0.00 | 61 | 1009.9 |
| 20260505020013 | 16 | 165 | 4.8 | 4.8 | 0.00 | 0.00 | 0.00 | 61 | 1009.7 |
| 20260505015509 | 16 | 172 | 3.2 | 4.8 | 0.00 | 0.00 | 0.00 | 61 | 1009.9 |
| 20260505015006 | 16 | 165 | 4.8 | 8.0 | 0.00 | 0.00 | 0.00 | 61 | 1009.7 |
| 20260505014503 | 16 | 207 | 4.8 | 8.0 | 0.00 | 0.00 | 0.00 | 60 | 1009.7 |
| 20260505014001 | 16 | 178 | 4.8 | 4.8 | 0.00 | 0.00 | 0.00 | 60 | 1009.8 |
| 20260505013457 | 16 | 185 | 3.2 | 4.8 | 0.00 | 0.00 | 0.00 | 59 | 1010.1 |
| 20260505012954 | 16 | 184 | 3.2 | 4.8 | 0.00 | 0.00 | 0.00 | 59 | 1010.1 |
| 20260505012453 | 17 | 196 | 4.8 | 4.8 | 0.00 | 0.00 | 0.00 | 58 | 1010.0 |
| 20260505011949 | 17 | 177 | 4.8 | 8.0 | 0.00 | 0.00 | 0.00 | 58 | 1009.9 |
| 20260505011445 | 17 | 172 | 8.0 | 12.9 | 0.00 | 0.00 | 0.00 | 57 | 1009.8 |
| 20260505010942 | 17 | 163 | 6.4 | 8.0 | 0.00 | 0.00 | 0.00 | 57 | 1009.3 |
| 20260505010438 | 17 | 186 | 6.4 | 8.0 | 0.00 | 0.00 | 0.00 | 56 | 1009.7 |
| 20260505005934 | 17 | 182 | 4.8 | 4.8 | 0.00 | 0.00 | 0.00 | 55 | 1009.6 |
| 20260505005431 | 17 | 210 | 9.7 | 12.9 | 0.00 | 0.00 | 0.00 | 54 | 1009.5 |
| 20260505004929 | 18 | 189 | 9.7 | 12.9 | 0.00 | 0.00 | 0.00 | 53 | 1009.5 |
| 20260505004425 | 18 | 272 | 4.8 | 8.0 | 0.00 | 0.00 | 0.00 | 53 | 1009.3 |
| 20260505003922 | 18 | 174 | 9.7 | 12.9 | 0.00 | 0.00 | 0.00 | 53 | 1009.3 |
| 20260505003419 | 18 | 192 | 14.5 | 17.7 | 0.00 | 0.00 | 0.00 | 52 | 1009.5 |
| 20260505002915 | 18 | 199 | 6.4 | 9.7 | 0.00 | 0.00 | 0.00 | 53 | 1009.2 |
| 20260505002412 | 18 | 198 | 9.7 | 12.9 | 0.00 | 0.00 | 0.00 | 53 | 1009.3 |
| 20260505001910 | 18 | 152 | 6.4 | 9.7 | 0.00 | 0.00 | 0.00 | 54 | 1009.3 |
| 20260505001408 | 18 | 186 | 9.7 | 12.9 | 0.00 | 0.00 | 0.00 | 55 | 1009.2 |
| 20260505000904 | 18 | 163 | 11.3 | 14.5 | 0.00 | 0.00 | 0.00 | 54 | 1009.1 |
| 20260505000403 | 19 | 199 | 8.0 | 9.7 | 0.00 | 0.00 | 0.00 | 53 | 1009.0 |
| 20260504235859 | 19 | 157 | 6.4 | 9.7 | 0.00 | 0.00 | 0.00 | 53 | 1009.0 |
| 20260504235356 | 20 | 292 | 11.3 | 12.9 | 0.00 | 0.00 | 0.00 | 51 | 1009.1 |
| 20260504234852 | 20 | 203 | 12.9 | 14.5 | 0.00 | 0.00 | 0.00 | 50 | 1009.0 |
| 20260504234350 | 21 | 206 | 8.0 | 8.0 | 0.00 | 0.00 | 0.00 | 47 | 1008.9 |
| 20260504233846 | 21 | 171 | 6.4 | 9.7 | 0.00 | 0.00 | 0.00 | 46 | 1008.8 |
| 20260504233342 | 21 | 185 | 11.3 | 14.5 | 0.00 | 0.00 | 0.00 | 45 | 1008.8 |
| 20260504232839 | 21 | 215 | 6.4 | 8.0 | 0.00 | 0.00 | 0.00 | 45 | 1008.9 |
| 20260504232336 | 21 | 174 | 3.2 | 8.0 | 0.00 | 0.00 | 0.00 | 44 | 1009.0 |
| 20260504231833 | 21 | 236 | 4.8 | 9.7 | 0.00 | 0.00 | 0.00 | 44 | 1008.7 |
| 20260504231329 | 21 | 186 | 6.4 | 9.7 | 0.00 | 0.00 | 0.00 | 44 | 1009.0 |
| 20260504230825 | 22 | 176 | 6.4 | 8.0 | 0.00 | 0.00 | 0.00 | 44 | 1008.6 |
| 20260504230323 | 22 | 254 | 3.2 | 4.8 | 0.00 | 0.00 | 0.00 | 43 | 1009.1 |
| 20260504225822 | 22 | 200 | 8.0 | 8.0 | 0.00 | 0.00 | 0.00 | 43 | 1009.1 |
| 20260504225318 | 22 | 221 | 8.0 | 12.9 | 0.00 | 0.00 | 0.00 | 42 | 1008.7 |
| 20260504224815 | 22 | 233 | 6.4 | 9.7 | 0.00 | 0.00 | 0.00 | 42 | 1009.0 |
| 20260504224312 | 22 | 241 | 6.4 | 12.9 | 0.00 | 0.00 | 0.00 | 41 | 1009.0 |
| 20260504223809 | 22 | 236 | 19.3 | 24.1 | 0.00 | 0.00 | 0.00 | 41 | 1009.1 |
| 20260504223304 | 22 | 274 | 14.5 | 17.7 | 0.00 | 0.00 | 0.00 | 41 | 1009.0 |
| 20260504222801 | 22 | 191 | 8.0 | 9.7 | 0.00 | 0.00 | 0.00 | 42 | 1009.2 |
| 20260504222258 | 22 | 267 | 9.7 | 14.5 | 0.00 | 0.00 | 0.00 | 41 | 1009.1 |
| 20260504221756 | 22 | 243 | 12.9 | 17.7 | 0.00 | 0.00 | 0.00 | 40 | 1009.2 |
| 20260504221253 | 22 | 260 | 16.1 | 22.5 | 0.00 | 0.00 | 0.00 | 40 | 1009.3 |
| 20260504220749 | 22 | 238 | 12.9 | 17.7 | 0.00 | 0.00 | 0.00 | 40 | 1008.8 |
| 20260504220246 | 22 | 278 | 17.7 | 27.4 | 0.00 | 0.00 | 0.00 | 40 | 1009.1 |
| 20260504215744 | 22 | 178 | 8.0 | 9.7 | 0.00 | 0.00 | 0.00 | 42 | 1009.2 |
| 20260504215240 | 22 | 160 | 12.9 | 14.5 | 0.00 | 0.00 | 0.00 | 41 | 1009.3 |
| 20260504214736 | 22 | 189 | 8.0 | 9.7 | 0.00 | 0.00 | 0.00 | 41 | 1009.2 |
| 20260504214233 | 22 | 185 | 19.3 | 22.5 | 0.00 | 0.00 | 0.00 | 39 | 1009.0 |
| 20260504213730 | 23 | 10 | 3.2 | 4.8 | 0.00 | 0.00 | 0.00 | 41 | 1009.0 |
| 20260504213226 | 23 | 236 | 8.0 | 9.7 | 0.00 | 0.00 | 0.00 | 40 | 1009.1 |
| 20260504212723 | 22 | 286 | 9.7 | 9.7 | 0.00 | 0.00 | 0.00 | 40 | 1009.1 |
| 20260504212220 | 23 | 148 | 8.0 | 12.9 | 0.00 | 0.00 | 0.00 | 40 | 1009.0 |
| 20260504211717 | 22 | 287 | 9.7 | 14.5 | 0.00 | 0.00 | 0.00 | 40 | 1008.9 |
| 20260504211213 | 22 | 245 | 4.8 | 8.0 | 0.00 | 0.00 | 0.00 | 41 | 1009.2 |
| 20260504210711 | 22 | 246 | 12.9 | 17.7 | 0.00 | 0.00 | 0.00 | 39 | 1009.3 |